{"data":{"norad_id":58779,"epoch":"2026-05-25T00:24:48.288384Z","epoch_age_seconds":83752,"freshness":"FRESH","line1":"1 58779U 24011Q   26145.01722556  .00000554  00000+0  30828-4 0  9998","line2":"2 58779  53.1621  19.3281 0001229  93.6029 266.5113 15.30198771131958","mean_motion":15.30198771,"eccentricity":0.0001229,"inclination_deg":53.1621,"raan_deg":19.3281,"arg_perigee_deg":93.6029,"mean_anomaly_deg":266.5113,"bstar":3.0828e-5,"rev_number":13195,"period_min":94.105421288435,"perigee_km":474.37646157393,"apogee_km":476.06101641457,"semimajor_km":6853.3557389943,"source":"CELESTRAK","updated_at":"2026-05-25T13:38:18.747048Z"}}